Tracking 19854 objects as of 22-Sep-2019
HD Live streaming from Space Station
objects crossing your sky now

BREEZE-M R/B

Track BREEZE-M R/B now!


NORAD ID: 32301
Int'l Code: 2007-057C
Perigee: 6,935.7 km
Apogee: 35,361.8 km
Inclination: 17.1 °
Period: 757.2 minutes
Semi major axis: 27519 km
RCS: 9.668 m2 (large)
Launch date: November 17, 2007
Source: Commonwealth of Independent States (former USSR) (CIS)
Launch site: TYURATAM MISSILE AND SPACE COMPLEX (TTMTR)

Note: This is a ROCKET BODY
aabbcc
Your satellite tracking list
Your tracking list is empty




NASA's NSSDC Master Catalog

Two Line Element Set (TLE):
1 32301U 07057C   19265.17185743  .00000022  00000-0  00000+0 0  9990
2 32301  17.0860 296.5077 5164684 154.8352 251.3622  1.90167843 82270
Source of the keplerian elements: AFSPC